Skip Page Navigation
NASA JPL Caltech
NASA Logo - Jet Propulsion Laboratory + View the NASA Portal
+ Center for Near-Earth Object Studies
JPL Home Earth Solar System Stars & Galaxies Technology
JPL Solar System Dynamics
BODIES ORBITS EPHEMERIDES TOOLS PHYSICAL DATA DISCOVERY FAQ SITE MAP
JPL Small-Body Database Browser
Search: [ help ]  
226294 (2003 BV52)
Classification: Main-belt Asteroid          SPK-ID: 2226294
Ephemeris | Orbit Diagram | Orbital Elements | Mission Design | Physical Parameters | Discovery Circumstances | Close-Approach Data ]

[ show orbit diagram ]
Orbital Elements at Epoch 2459000.5 (2020-May-31.0) TDB
Reference: JPL 13 (heliocentric ecliptic J2000)
 Element Value Uncertainty (1-sigma)   Units 
e .1814517786497485 5.3307e-08  
a 2.369497330998037 1.5669e-08 au
q 1.939547825782612 1.2497e-07 au
i 3.474528951320669 7.2191e-06 deg
node 44.86758404050715 8.5271e-05 deg
peri 106.3584063944835 8.7867e-05 deg
M 255.709664910061 2.5318e-05 deg
tp 2459386.444027632377
(2021-Jun-20.94402763)
9.6321e-05 TDB
period 1332.240900634132
3.65
1.3215e-05
3.618e-08
d
yr
n .2702213990192345 2.6803e-09 deg/d
Q 2.799446836213463 1.8512e-08 au
  Orbit Determination Parameters
   # obs. used (total)      294  
   data-arc span      6086 days (16.66 yr)  
   first obs. used      2003-01-27  
   last obs. used      2019-09-26  
   planetary ephem.      DE431  
   SB-pert. ephem.      SB431-N16  
   condition code      0  
   norm. resid. RMS      .60009  
   source      ORB  
   producer      Otto Matic  
   solution date      2020-Feb-25 05:52:18  

Additional Information
 Earth MOID = .953678 au 
 Jupiter MOID = 2.20125 au 
 T_jup = 3.521 
[ show covariance matrix ]

Ephemeris | Orbit Diagram | Orbital Elements | Mission Design | Physical Parameters | Discovery Circumstances | Close-Approach Data ]

Physical Parameter Table
Parameter Symbol Value Units Sigma Reference Notes
absolute magnitude H 17.4   n/a MPO440182  

226294 (2003 BV52)          Discovered 2003-Jan-27 by LONEOS at Anderson Mesa
Reference: 20091202/Numbers.arcLast Updated: 2009-12-04

[ show close-approach data ]
Alternate Designations
 2003 BV52 = 2005 UJ193 
Ephemeris | Orbit Diagram | Orbital Elements | Mission Design | Physical Parameters | Discovery Circumstances | Close-Approach Data ]
ABOUT SSD CREDITS/AWARDS PRIVACY/COPYRIGHT GLOSSARY LINKS
FirstGov 2020-Aug-12 06:58 UT
(server date/time)  
NASA Home Page
Site Manager:   Ryan S. Park
Webmaster  Alan B. Chamberlin